sat.trackr.live / text

‹ back to catalog

STARLINK-4538

NORAD 53430 · 2022-097AU

PAYLOAD ACTIVE UNKNOWN

§ Identity

Operator
Country
US
Launch date
2022-08-10
Launch site
AFETR
Launch vehicle
Mass (kg)
RCS (m²)

Purposes: comms

External: N2YO · Heavens-Above · Gunter

§ Orbital elements

Epoch: 2026-09-19T09:37:57.612864Z

Period
93.79 min
Inclination
53.1598°
Eccentricity
0.0001174
Mean motion
15.35401022 rev/d
Perigee alt
458.9 km
Apogee alt
460.5 km
Semi-major
6,837.9 km
B*
1.2539e-5
RAAN
298.7126°
Arg perigee
82.5770°
Mean anomaly
277.5367°
Rev number
22,822

§ Raw data

STARLINK-45381 53430U 22097AU  26262.40136126  .00000057  00000+0  12539-4 0  99912 53430  53.1598 298.7126 0001174  82.5770 277.5367 15.35401022228221

JSON: /api/v1/satellites/53430 · /tle

For live sub-satellite position, see the globe view (requires WebGL).

§ Visibility from observer

Set your observer location to see the next 7 days of passes ≥ 10°. The values pass through the URL so the page stays shareable.

No JS? Fill the form by hand. The geolocation button needs JavaScript.